Location: Cadeilhan
(42.8161°N, 0.3161°E)
Time: 22:21:10
(UTC+00:00)

Iridium 51 - Pass Details

Date: 18 February 2020
Orbit: 459 x 743 km, 86.4° (Epoch: 09 April)

Event Time Altitude Azimuth Distance (km) Brightness Sun altitude
Rises 06:16:45 0° 183° (S) 2,799 8.0 -7.3°
Reaches altitude 10° 06:19:01 10° 183° (S) 1,856 7.1 -6.9°
Maximum altitude 06:23:03 85° 272° (W) 540 4.2 -6.1°
Drops below altitude 10° 06:26:49 10° 2° (N) 1,723 6.8 -5.4°
Sets 06:28:51 0° 3° (N) 2,578 7.7 -5.1°
